Location: Palomar Mountain Lodge
(33.3110°N, 116.8495°W)
Time: 06:26:51
(UTC-07:00)

Tiangong 2 - Pass Details

Date: 12 July 2018
Orbit: 386 x 394 km, 42.8° (Epoch: 21 July)

Event Time Altitude Azimuth Distance (km) Brightness Sun altitude
Rises 22:56:01 0° 288° (WNW) 2,257 5.6 -28.2°
Reaches altitude 10° 22:58:39 10° 311° (NW) 1,403 4.8 -28.5°
Enters shadow 22:59:55 15° 334° (NNW) 1,151 4.3 -28.6°
